Time,TemperatureF,DewpointF,PressureIn,WindDirection,WindDirectionDegrees,WindSpeedMPH,WindSpeedGustMPH,Humidity,HourlyPrecipIn,Conditions,Clouds,dailyrainin,SoftwareType,DateUTC
2013-08-28 00:02:00,64.8,45.7,29.80,NNW,334,0.0,0.0,50,0.00,,,0.00,WeatherCatV1.21B27,2013-08-28 07:02:00,
2013-08-28 00:07:00,64.5,46.0,29.80,NNW,334,0.0,0.0,51,0.00,,,0.00,WeatherCatV1.21B27,2013-08-28 07:07:00,
2013-08-28 00:12:00,64.2,46.2,29.80,NNW,334,0.0,0.0,52,0.00,,,0.00,WeatherCatV1.21B27,2013-08-28 07:12:00,
2013-08-28 00:17:00,64.1,46.1,29.79,NNW,334,0.0,0.0,52,0.00,,,0.00,WeatherCatV1.21B27,2013-08-28 07:17:00,
2013-08-28 00:22:00,64.0,46.0,29.79,NNW,334,0.0,0.0,52,0.00,,,0.00,WeatherCatV1.21B27,2013-08-28 07:22:00,
2013-08-28 00:27:00,63.9,45.9,29.79,NNW,334,0.0,0.0,52,0.00,,,0.00,WeatherCatV1.21B27,2013-08-28 07:27:00,
2013-08-28 00:32:00,63.8,45.8,29.80,NNW,334,0.0,0.0,52,0.00,,,0.00,WeatherCatV1.21B27,2013-08-28 07:32:00,
2013-08-28 00:37:00,63.8,45.8,29.80,NNW,334,0.0,0.0,52,0.00,,,0.00,WeatherCatV1.21B27,2013-08-28 07:37:00,
2013-08-28 00:42:00,63.8,45.8,29.80,NNW,334,0.0,0.0,52,0.00,,,0.00,WeatherCatV1.21B27,2013-08-28 07:42:00,
2013-08-28 00:47:00,63.8,45.8,29.80,NNW,334,0.0,0.0,52,0.00,,,0.00,WeatherCatV1.21B27,2013-08-28 07:47:00,
2013-08-28 00:52:00,63.7,47.2,29.80,NNW,334,0.0,0.0,55,0.00,,,0.00,WeatherCatV1.21B27,2013-08-28 07:52:00,
2013-08-28 00:57:00,63.6,47.1,29.80,NNW,334,0.0,0.0,55,0.00,,,0.00,WeatherCatV1.21B27,2013-08-28 07:57:00,
2013-08-28 01:02:00,63.4,47.0,29.80,NNW,334,0.0,0.0,55,0.00,,,0.00,WeatherCatV1.21B27,2013-08-28 08:02:00,
2013-08-28 01:07:00,63.3,48.3,29.80,NNW,334,0.0,0.0,58,0.00,,,0.00,WeatherCatV1.21B27,2013-08-28 08:07:00,
2013-08-28 01:12:00,63.1,48.5,29.80,NNW,334,0.0,0.0,59,0.00,,,0.00,WeatherCatV1.21B27,2013-08-28 08:12:00,
2013-08-28 01:17:00,62.9,48.8,29.79,NNW,334,0.0,0.0,60,0.00,,,0.00,WeatherCatV1.21B27,2013-08-28 08:17:00,
2013-08-28 01:22:00,62.7,49.5,29.79,NNW,334,0.0,0.0,62,0.00,,,0.00,WeatherCatV1.21B27,2013-08-28 08:22:00,
2013-08-28 01:27:00,62.6,50.7,29.79,NNW,334,0.0,0.0,65,0.00,,,0.00,WeatherCatV1.21B27,2013-08-28 08:27:00,
2013-08-28 01:32:00,62.4,50.1,29.79,NNW,334,0.0,0.0,64,0.00,,,0.00,WeatherCatV1.21B27,2013-08-28 08:32:00,
2013-08-28 01:37:00,62.2,49.9,29.79,NNW,334,0.0,0.0,64,0.00,,,0.00,WeatherCatV1.21B27,2013-08-28 08:37:00,
2013-08-28 01:42:00,62.1,50.6,29.79,NNW,334,0.0,0.0,66,0.00,,,0.00,WeatherCatV1.21B27,2013-08-28 08:42:00,
2013-08-28 01:47:00,62.0,50.9,29.79,NNW,334,0.0,0.0,67,0.00,,,0.00,WeatherCatV1.21B27,2013-08-28 08:47:00,
2013-08-28 01:52:00,61.9,51.2,29.79,NNW,334,0.0,0.0,68,0.00,,,0.00,WeatherCatV1.21B27,2013-08-28 08:52:00,
2013-08-28 01:57:00,61.8,51.1,29.79,NNW,334,0.0,0.0,68,0.00,,,0.00,WeatherCatV1.21B27,2013-08-28 08:57:00,
2013-08-28 02:02:00,61.7,51.4,29.79,NNW,334,0.0,0.0,69,0.00,,,0.00,WeatherCatV1.21B27,2013-08-28 09:02:00,
2013-08-28 02:07:00,61.6,50.9,29.79,NNW,334,0.0,0.0,68,0.00,,,0.00,WeatherCatV1.21B27,2013-08-28 09:07:00,
2013-08-28 02:12:00,61.5,50.8,29.79,NNW,334,0.0,0.0,68,0.00,,,0.00,WeatherCatV1.21B27,2013-08-28 09:12:00,
2013-08-28 02:17:00,61.5,50.0,29.79,NNW,334,0.0,0.0,66,0.00,,,0.00,WeatherCatV1.21B27,2013-08-28 09:17:00,
2013-08-28 02:22:00,61.3,48.6,29.79,NNW,334,0.0,0.0,63,0.00,,,0.00,WeatherCatV1.21B27,2013-08-28 09:22:00,
2013-08-28 02:27:00,61.2,48.1,29.79,NNW,334,0.0,0.0,62,0.00,,,0.00,WeatherCatV1.21B27,2013-08-28 09:27:00,
2013-08-28 02:32:00,61.2,48.1,29.78,NNW,334,0.0,0.0,62,0.00,,,0.00,WeatherCatV1.21B27,2013-08-28 09:32:00,
2013-08-28 02:34:00,61.2,48.1,29.78,NNW,334,0.0,0.0,62,0.00,,,0.00,WeatherCatV1.21B27,2013-08-28 09:34:00,
2013-08-28 02:39:00,61.1,47.5,29.78,NNW,334,0.0,0.0,61,0.00,,,0.00,WeatherCatV1.21B27,2013-08-28 09:39:00,
2013-08-28 02:44:00,61.1,47.1,29.78,NNW,334,0.0,0.0,60,0.00,,,0.00,WeatherCatV1.21B27,2013-08-28 09:44:00,
2013-08-28 02:49:00,61.1,47.1,29.78,NNW,334,0.0,0.0,60,0.00,,,0.00,WeatherCatV1.21B27,2013-08-28 09:49:00,
2013-08-28 02:54:00,61.1,48.0,29.78,NNW,334,1.0,2.0,62,0.00,,,0.00,WeatherCatV1.21B27,2013-08-28 09:54:00,
2013-08-28 02:59:00,61.0,47.9,29.78,NNW,334,0.0,1.0,62,0.00,,,0.00,WeatherCatV1.21B27,2013-08-28 09:59:00,
2013-08-28 03:04:00,60.9,47.4,29.78,NNW,334,0.0,0.0,61,0.00,,,0.00,WeatherCatV1.21B27,2013-08-28 10:04:00,
2013-08-28 03:09:00,61.0,47.9,29.78,NNW,334,0.0,0.0,62,0.00,,,0.00,WeatherCatV1.21B27,2013-08-28 10:09:00,
2013-08-28 03:14:00,60.9,48.6,29.78,NNW,334,0.0,0.0,64,0.00,,,0.00,WeatherCatV1.21B27,2013-08-28 10:14:00,
2013-08-28 03:19:00,60.9,48.6,29.78,NNW,334,0.0,0.0,64,0.00,,,0.00,WeatherCatV1.21B27,2013-08-28 10:19:00,
2013-08-28 03:24:00,60.8,48.1,29.78,NNW,334,0.0,0.0,63,0.00,,,0.00,WeatherCatV1.21B27,2013-08-28 10:24:00,
2013-08-28 03:29:00,60.7,48.0,29.78,NNW,334,0.0,0.0,63,0.00,,,0.00,WeatherCatV1.21B27,2013-08-28 10:29:00,
2013-08-28 03:34:00,60.5,47.8,29.78,NNW,334,0.0,0.0,63,0.00,,,0.00,WeatherCatV1.21B27,2013-08-28 10:34:00,
2013-08-28 03:39:00,60.4,49.8,29.78,NNW,334,0.0,0.0,68,0.00,,,0.00,WeatherCatV1.21B27,2013-08-28 10:39:00,
2013-08-28 03:44:00,60.4,50.2,29.78,NNW,334,0.0,0.0,69,0.00,,,0.00,WeatherCatV1.21B27,2013-08-28 10:44:00,
2013-08-28 03:49:00,60.3,50.8,29.78,NNW,334,0.0,0.0,71,0.00,,,0.00,WeatherCatV1.21B27,2013-08-28 10:49:00,
2013-08-28 03:54:00,60.2,51.1,29.78,NNW,334,0.0,0.0,72,0.00,,,0.00,WeatherCatV1.21B27,2013-08-28 10:54:00,
2013-08-28 03:59:00,60.1,51.0,29.78,NNW,334,0.0,0.0,72,0.00,,,0.00,WeatherCatV1.21B27,2013-08-28 10:59:00,
2013-08-28 04:04:00,59.9,50.5,29.78,NNW,334,0.0,0.0,71,0.00,,,0.00,WeatherCatV1.21B27,2013-08-28 11:04:00,
2013-08-28 04:09:00,59.8,50.0,29.78,NNW,334,0.0,0.0,70,0.00,,,0.00,WeatherCatV1.21B27,2013-08-28 11:09:00,
2013-08-28 04:14:00,59.6,50.2,29.78,NNW,334,0.0,0.0,71,0.00,,,0.00,WeatherCatV1.21B27,2013-08-28 11:14:00,
2013-08-28 04:19:00,59.6,50.9,29.78,NNW,334,0.0,0.0,73,0.00,,,0.00,WeatherCatV1.21B27,2013-08-28 11:19:00,
2013-08-28 04:24:00,59.5,51.2,29.78,NNW,334,0.0,0.0,74,0.00,,,0.00,WeatherCatV1.21B27,2013-08-28 11:24:00,
2013-08-28 04:29:00,59.4,51.1,29.78,NNW,334,0.0,0.0,74,0.00,,,0.00,WeatherCatV1.21B27,2013-08-28 11:29:00,
2013-08-28 04:34:00,59.3,50.6,29.78,NNW,334,0.0,0.0,73,0.00,,,0.00,WeatherCatV1.21B27,2013-08-28 11:34:00,
2013-08-28 04:39:00,59.2,50.2,29.78,NNW,334,0.0,0.0,72,0.00,,,0.00,WeatherCatV1.21B27,2013-08-28 11:39:00,
2013-08-28 04:44:00,59.0,48.5,29.77,NNW,334,0.0,0.0,68,0.00,,,0.00,WeatherCatV1.21B27,2013-08-28 11:44:00,
2013-08-28 04:49:00,58.9,47.6,29.77,NNW,334,0.0,0.0,66,0.00,,,0.00,WeatherCatV1.21B27,2013-08-28 11:49:00,
2013-08-28 04:54:00,58.9,47.6,29.77,NNW,334,0.0,0.0,66,0.00,,,0.00,WeatherCatV1.21B27,2013-08-28 11:54:00,
2013-08-28 04:59:00,59.0,47.7,29.77,NNW,334,0.0,0.0,66,0.00,,,0.00,WeatherCatV1.21B27,2013-08-28 11:59:00,
2013-08-28 05:04:00,59.1,47.3,29.77,NNW,334,0.0,0.0,65,0.00,,,0.00,WeatherCatV1.21B27,2013-08-28 12:04:00,
2013-08-28 05:09:00,59.3,47.5,29.77,NNW,334,0.0,0.0,65,0.00,,,0.00,WeatherCatV1.21B27,2013-08-28 12:09:00,
2013-08-28 05:14:00,59.3,47.1,29.77,NNW,334,0.0,0.0,64,0.00,,,0.00,WeatherCatV1.21B27,2013-08-28 12:14:00,
2013-08-28 05:19:00,59.3,48.3,29.77,NNW,334,0.0,0.0,67,0.00,,,0.00,WeatherCatV1.21B27,2013-08-28 12:19:00,
2013-08-28 05:24:00,59.3,47.5,29.77,NNW,334,0.0,0.0,65,0.00,,,0.00,WeatherCatV1.21B27,2013-08-28 12:24:00,
2013-08-28 05:29:00,59.3,47.9,29.77,NNW,334,0.0,1.0,66,0.00,,,0.00,WeatherCatV1.21B27,2013-08-28 12:29:00,
2013-08-28 05:34:00,59.2,48.2,29.77,NNW,334,0.0,0.0,67,0.00,,,0.00,WeatherCatV1.21B27,2013-08-28 12:34:00,
2013-08-28 05:39:00,59.3,49.9,29.77,NNW,334,0.0,0.0,71,0.00,,,0.00,WeatherCatV1.21B27,2013-08-28 12:39:00,
2013-08-28 05:44:00,59.3,50.6,29.77,NNW,334,0.0,0.0,73,0.00,,,0.00,WeatherCatV1.21B27,2013-08-28 12:44:00,
2013-08-28 05:49:00,59.4,50.7,29.78,NNW,334,0.0,0.0,73,0.00,,,0.00,WeatherCatV1.21B27,2013-08-28 12:49:00,
2013-08-28 05:54:00,59.3,50.6,29.78,NNW,334,0.0,0.0,73,0.00,,,0.00,WeatherCatV1.21B27,2013-08-28 12:54:00,
2013-08-28 05:59:00,59.3,50.6,29.78,NNW,334,0.0,0.0,73,0.00,,,0.00,WeatherCatV1.21B27,2013-08-28 12:59:00,
2013-08-28 06:04:00,59.2,49.8,29.78,NNW,334,0.0,0.0,71,0.00,,,0.00,WeatherCatV1.21B27,2013-08-28 13:04:00,
2013-08-28 06:09:00,59.0,49.6,29.78,NNW,334,0.0,0.0,71,0.00,,,0.00,WeatherCatV1.21B27,2013-08-28 13:09:00,
2013-08-28 06:14:00,58.9,49.5,29.78,NNW,334,1.0,1.0,71,0.00,,,0.00,WeatherCatV1.21B27,2013-08-28 13:14:00,
2013-08-28 06:19:00,58.9,49.5,29.78,NNW,334,0.0,0.0,71,0.00,,,0.00,WeatherCatV1.21B27,2013-08-28 13:19:00,
2013-08-28 06:24:00,58.9,49.5,29.78,NNW,334,0.0,0.0,71,0.00,,,0.00,WeatherCatV1.21B27,2013-08-28 13:24:00,
2013-08-28 06:29:00,58.8,49.8,29.78,NNW,334,0.0,0.0,72,0.00,,,0.00,WeatherCatV1.21B27,2013-08-28 13:29:00,
2013-08-28 06:34:00,58.7,49.7,29.79,NNW,334,0.0,0.0,72,0.00,,,0.00,WeatherCatV1.21B27,2013-08-28 13:34:00,
2013-08-28 06:39:00,58.7,49.3,29.79,NNW,334,0.0,0.0,71,0.00,,,0.00,WeatherCatV1.21B27,2013-08-28 13:39:00,
2013-08-28 06:44:00,58.8,49.0,29.79,NNW,334,0.0,0.0,70,0.00,,,0.00,WeatherCatV1.21B27,2013-08-28 13:44:00,
2013-08-28 06:49:00,58.9,48.8,29.79,NNW,334,0.0,0.0,69,0.00,,,0.00,WeatherCatV1.21B27,2013-08-28 13:49:00,
2013-08-28 06:54:00,59.1,48.9,29.79,NNW,334,0.0,0.0,69,0.00,,,0.00,WeatherCatV1.21B27,2013-08-28 13:54:00,
2013-08-28 06:59:00,59.2,49.0,29.79,NNW,334,0.0,0.0,69,0.00,,,0.00,WeatherCatV1.21B27,2013-08-28 13:59:00,
2013-08-28 07:04:00,59.3,49.1,29.79,NNW,334,0.0,0.0,69,0.00,,,0.00,WeatherCatV1.21B27,2013-08-28 14:04:00,
2013-08-28 07:09:00,59.5,49.3,29.79,NNW,334,0.0,0.0,69,0.00,,,0.00,WeatherCatV1.21B27,2013-08-28 14:09:00,
2013-08-28 07:14:00,59.6,49.4,29.80,NNW,334,0.0,0.0,69,0.00,,,0.00,WeatherCatV1.21B27,2013-08-28 14:14:00,
2013-08-28 07:19:00,59.7,49.5,29.80,NNW,334,0.0,0.0,69,0.00,,,0.00,WeatherCatV1.21B27,2013-08-28 14:19:00,
2013-08-28 07:24:00,59.8,49.6,29.80,NNW,334,0.0,0.0,69,0.00,,,0.00,WeatherCatV1.21B27,2013-08-28 14:24:00,
2013-08-28 07:29:00,60.0,49.8,29.80,NNW,334,0.0,0.0,69,0.00,,,0.00,WeatherCatV1.21B27,2013-08-28 14:29:00,
2013-08-28 07:34:00,60.3,49.7,29.80,NNW,334,0.0,0.0,68,0.00,,,0.00,WeatherCatV1.21B27,2013-08-28 14:34:00,
2013-08-28 07:39:00,60.4,49.8,29.80,NNW,334,0.0,0.0,68,0.00,,,0.00,WeatherCatV1.21B27,2013-08-28 14:39:00,
2013-08-28 07:44:00,60.7,50.1,29.80,NNW,334,0.0,0.0,68,0.00,,,0.00,WeatherCatV1.21B27,2013-08-28 14:44:00,
2013-08-28 07:49:00,60.9,50.3,29.81,NNW,335,0.0,0.0,68,0.00,,,0.00,WeatherCatV1.21B27,2013-08-28 14:49:00,
2013-08-28 07:54:00,61.2,50.2,29.81,NNW,335,0.0,0.0,67,0.00,,,0.00,WeatherCatV1.21B27,2013-08-28 14:54:00,
2013-08-28 07:59:00,61.5,50.4,29.81,NNW,335,0.0,0.0,67,0.00,,,0.00,WeatherCatV1.21B27,2013-08-28 14:59:00,
2013-08-28 08:04:00,62.0,50.9,29.81,NNW,335,0.0,0.0,67,0.00,,,0.00,WeatherCatV1.21B27,2013-08-28 15:04:00,
2013-08-28 08:09:00,62.4,50.9,29.81,NNW,335,0.0,0.0,66,0.00,,,0.00,WeatherCatV1.21B27,2013-08-28 15:09:00,
2013-08-28 08:14:00,62.7,51.2,29.81,NNW,335,0.0,0.0,66,0.00,,,0.00,WeatherCatV1.21B27,2013-08-28 15:14:00,
2013-08-28 08:19:00,63.0,51.5,29.81,NNW,335,0.0,0.0,66,0.00,,,0.00,WeatherCatV1.21B27,2013-08-28 15:19:00,
2013-08-28 08:24:00,63.2,51.2,29.81,NNW,335,0.0,0.0,65,0.00,,,0.00,WeatherCatV1.21B27,2013-08-28 15:24:00,
2013-08-28 08:29:00,63.7,52.1,29.81,NNW,335,0.0,0.0,66,0.00,,,0.00,WeatherCatV1.21B27,2013-08-28 15:29:00,
2013-08-28 08:34:00,64.0,52.0,29.81,NNW,335,0.0,0.0,65,0.00,,,0.00,WeatherCatV1.21B27,2013-08-28 15:34:00,
2013-08-28 08:39:00,64.4,52.4,29.81,NNW,335,0.0,0.0,65,0.00,,,0.00,WeatherCatV1.21B27,2013-08-28 15:39:00,
2013-08-28 08:44:00,64.7,52.2,29.82,SE,141,0.0,2.0,64,0.00,,,0.00,WeatherCatV1.21B27,2013-08-28 15:44:00,
2013-08-28 08:49:00,65.0,52.5,29.82,SE,141,0.0,0.0,64,0.00,,,0.00,WeatherCatV1.21B27,2013-08-28 15:49:00,
2013-08-28 08:54:00,65.2,52.7,29.82,SSE,158,1.0,1.0,64,0.00,,,0.00,WeatherCatV1.21B27,2013-08-28 15:54:00,
2013-08-28 08:59:00,65.6,52.7,29.82,SSE,165,0.0,1.0,63,0.00,,,0.00,WeatherCatV1.21B27,2013-08-28 15:59:00,
2013-08-28 09:04:00,65.8,53.3,29.82,SSE,165,0.0,1.0,64,0.00,,,0.00,WeatherCatV1.21B27,2013-08-28 16:04:00,
2013-08-28 09:09:00,66.0,53.0,29.82,SSE,157,0.0,1.0,63,0.00,,,0.00,WeatherCatV1.21B27,2013-08-28 16:09:00,
2013-08-28 09:14:00,66.3,53.3,29.82,SSE,157,0.0,1.0,63,0.00,,,0.00,WeatherCatV1.21B27,2013-08-28 16:14:00,
2013-08-28 09:19:00,66.5,53.5,29.82,SSE,157,0.0,1.0,63,0.00,,,0.00,WeatherCatV1.21B27,2013-08-28 16:19:00,
2013-08-28 09:24:00,66.8,53.3,29.82,SSE,157,0.0,1.0,62,0.00,,,0.00,WeatherCatV1.21B27,2013-08-28 16:24:00,
2013-08-28 09:29:00,67.1,53.6,29.83,SSE,157,0.0,1.0,62,0.00,,,0.00,WeatherCatV1.21B27,2013-08-28 16:29:00,
2013-08-28 09:34:00,67.4,53.9,29.83,SSE,156,0.0,1.0,62,0.00,,,0.00,WeatherCatV1.21B27,2013-08-28 16:34:00,
2013-08-28 09:39:00,67.8,53.8,29.83,SSE,150,1.0,1.0,61,0.00,,,0.00,WeatherCatV1.21B27,2013-08-28 16:39:00,
2013-08-28 09:44:00,68.1,54.1,29.83,SSE,154,2.0,2.0,61,0.00,,,0.00,WeatherCatV1.21B27,2013-08-28 16:44:00,
2013-08-28 09:49:00,68.5,54.5,29.83,SSE,148,2.0,2.0,61,0.00,,,0.00,WeatherCatV1.21B27,2013-08-28 16:49:00,
2013-08-28 09:54:00,69.0,55.0,29.83,SSE,148,1.0,1.0,61,0.00,,,0.00,WeatherCatV1.21B27,2013-08-28 16:54:00,
2013-08-28 09:59:00,69.6,55.1,29.83,SSE,164,0.0,0.0,60,0.00,,,0.00,WeatherCatV1.21B27,2013-08-28 16:59:00,
2013-08-28 10:04:00,70.2,55.2,29.83,South,170,1.0,2.0,59,0.00,,,0.00,WeatherCatV1.21B27,2013-08-28 17:04:00,
2013-08-28 10:09:00,70.6,55.1,29.83,SSE,159,0.0,0.0,58,0.00,,,0.00,WeatherCatV1.21B27,2013-08-28 17:09:00,
2013-08-28 10:14:00,70.8,55.3,29.84,SE,142,0.0,2.0,58,0.00,,,0.00,WeatherCatV1.21B27,2013-08-28 17:14:00,
2013-08-28 10:19:00,71.3,54.8,29.84,SE,125,0.0,1.0,56,0.00,,,0.00,WeatherCatV1.21B27,2013-08-28 17:19:00,
2013-08-28 10:24:00,71.9,54.8,29.84,South,185,0.0,1.0,55,0.00,,,0.00,WeatherCatV1.21B27,2013-08-28 17:24:00,
2013-08-28 10:29:00,72.5,55.4,29.84,SSE,157,0.0,1.0,55,0.00,,,0.00,WeatherCatV1.21B27,2013-08-28 17:29:00,
2013-08-28 10:34:00,73.0,55.9,29.84,SSE,149,0.0,0.0,55,0.00,,,0.00,WeatherCatV1.21B27,2013-08-28 17:34:00,
2013-08-28 10:39:00,73.7,56.5,29.84,SSE,148,2.0,2.0,55,0.00,,,0.00,WeatherCatV1.21B27,2013-08-28 17:39:00,
2013-08-28 10:44:00,74.0,56.8,29.84,SE,125,0.0,1.0,55,0.00,,,0.00,WeatherCatV1.21B27,2013-08-28 17:44:00,
2013-08-28 10:49:00,74.3,57.6,29.84,SE,126,0.0,0.0,56,0.00,,,0.00,WeatherCatV1.21B27,2013-08-28 17:49:00,
2013-08-28 10:54:00,74.9,57.1,29.84,SE,133,2.0,3.0,54,0.00,,,0.00,WeatherCatV1.21B27,2013-08-28 17:54:00,
2013-08-28 10:59:00,75.2,57.4,29.84,SE,137,0.0,3.0,54,0.00,,,0.00,WeatherCatV1.21B27,2013-08-28 17:59:00,
2013-08-28 11:04:00,75.3,57.5,29.84,SSE,156,1.0,3.0,54,0.00,,,0.00,WeatherCatV1.21B27,2013-08-28 18:04:00,
2013-08-28 11:09:00,75.9,57.5,29.84,SE,144,1.0,3.0,53,0.00,,,0.00,WeatherCatV1.21B27,2013-08-28 18:09:00,
2013-08-28 11:14:00,76.6,58.2,29.84,SE,135,0.0,1.0,53,0.00,,,0.00,WeatherCatV1.21B27,2013-08-28 18:14:00,
2013-08-28 11:19:00,77.2,57.7,29.84,NNW,334,1.0,2.0,51,0.00,,,0.00,WeatherCatV1.21B27,2013-08-28 18:19:00,
2013-08-28 11:24:00,77.3,58.3,29.84,ENE,59,0.0,1.0,52,0.00,,,0.00,WeatherCatV1.21B27,2013-08-28 18:24:00,
2013-08-28 11:29:00,78.1,57.9,29.85,SSE,150,0.0,3.0,50,0.00,,,0.00,WeatherCatV1.21B27,2013-08-28 18:29:00,
2013-08-28 11:34:00,78.8,58.6,29.85,SSE,150,0.0,2.0,50,0.00,,,0.00,WeatherCatV1.21B27,2013-08-28 18:34:00,
2013-08-28 11:39:00,79.3,58.5,29.85,SE,146,1.0,2.0,49,0.00,,,0.00,WeatherCatV1.21B27,2013-08-28 18:39:00,
2013-08-28 11:44:00,79.4,58.0,29.85,SE,133,1.0,3.0,48,0.00,,,0.00,WeatherCatV1.21B27,2013-08-28 18:44:00,
2013-08-28 11:49:00,79.5,58.6,29.85,SE,140,0.0,2.0,49,0.00,,,0.00,WeatherCatV1.21B27,2013-08-28 18:49:00,
2013-08-28 11:54:00,79.8,58.3,29.85,SE,129,2.0,2.0,48,0.00,,,0.00,WeatherCatV1.21B27,2013-08-28 18:54:00,
2013-08-28 11:59:00,79.8,58.3,29.85,NNE,21,0.0,2.0,48,0.00,,,0.00,WeatherCatV1.21B27,2013-08-28 18:59:00,
2013-08-28 12:04:00,79.7,58.2,29.85,East,98,0.0,1.0,48,0.00,,,0.00,WeatherCatV1.21B27,2013-08-28 19:04:00,
2013-08-28 12:09:00,80.2,58.7,29.85,ESE,103,0.0,0.0,48,0.00,,,0.00,WeatherCatV1.21B27,2013-08-28 19:09:00,
2013-08-28 12:14:00,80.2,58.1,29.85,NNW,343,0.0,2.0,47,0.00,,,0.00,WeatherCatV1.21B27,2013-08-28 19:14:00,
2013-08-28 12:19:00,80.8,57.5,29.85,North,353,1.0,2.0,45,0.00,,,0.00,WeatherCatV1.21B27,2013-08-28 19:19:00,
2013-08-28 12:24:00,81.4,58.6,29.85,East,88,0.0,1.0,46,0.00,,,0.00,WeatherCatV1.21B27,2013-08-28 19:24:00,
2013-08-28 12:29:00,82.0,58.5,29.85,SE,141,0.0,1.0,45,0.00,,,0.00,WeatherCatV1.21B27,2013-08-28 19:29:00,
2013-08-28 12:34:00,82.4,58.3,29.85,East,79,0.0,2.0,44,0.00,,,0.00,WeatherCatV1.21B27,2013-08-28 19:34:00,
2013-08-28 12:39:00,82.5,58.4,29.85,SSE,165,0.0,1.0,44,0.00,,,0.00,WeatherCatV1.21B27,2013-08-28 19:39:00,
2013-08-28 12:44:00,83.0,58.8,29.85,South,169,0.0,1.0,44,0.00,,,0.00,WeatherCatV1.21B27,2013-08-28 19:44:00,
2013-08-28 12:49:00,83.2,57.7,29.85,SSE,155,0.0,1.0,42,0.00,,,0.00,WeatherCatV1.21B27,2013-08-28 19:49:00,
2013-08-28 12:54:00,83.7,58.8,29.85,SSE,156,0.0,1.0,43,0.00,,,0.00,WeatherCatV1.21B27,2013-08-28 19:54:00,
2013-08-28 12:59:00,83.9,57.6,29.85,NNE,15,0.0,2.0,41,0.00,,,0.00,WeatherCatV1.21B27,2013-08-28 19:59:00,
2013-08-28 13:04:00,84.1,58.5,29.85,SE,138,1.0,1.0,42,0.00,,,0.00,WeatherCatV1.21B27,2013-08-28 20:04:00,
2013-08-28 13:09:00,84.2,58.6,29.85,ESE,119,1.0,2.0,42,0.00,,,0.00,WeatherCatV1.21B27,2013-08-28 20:09:00,
2013-08-28 13:14:00,84.0,59.1,29.85,SE,136,0.0,2.0,43,0.00,,,0.00,WeatherCatV1.21B27,2013-08-28 20:14:00,
2013-08-28 13:19:00,84.0,58.4,29.85,NNW,344,0.0,3.0,42,0.00,,,0.00,WeatherCatV1.21B27,2013-08-28 20:19:00,
2013-08-28 13:24:00,84.1,58.5,29.85,SE,138,0.0,3.0,42,0.00,,,0.00,WeatherCatV1.21B27,2013-08-28 20:24:00,
2013-08-28 13:29:00,83.8,58.2,29.84,SE,139,1.0,2.0,42,0.00,,,0.00,WeatherCatV1.21B27,2013-08-28 20:29:00,
2013-08-28 13:34:00,83.4,58.5,29.84,SE,130,0.0,3.0,43,0.00,,,0.00,WeatherCatV1.21B27,2013-08-28 20:34:00,
2013-08-28 13:39:00,83.3,57.8,29.84,ESE,108,1.0,1.0,42,0.00,,,0.00,WeatherCatV1.21B27,2013-08-28 20:39:00,
2013-08-28 13:44:00,83.0,58.2,29.84,NNE,22,0.0,2.0,43,0.00,,,0.00,WeatherCatV1.21B27,2013-08-28 20:44:00,
2013-08-28 13:49:00,82.9,58.7,29.84,SE,133,0.0,2.0,44,0.00,,,0.00,WeatherCatV1.21B27,2013-08-28 20:49:00,
2013-08-28 13:54:00,83.3,58.4,29.84,SE,129,0.0,1.0,43,0.00,,,0.00,WeatherCatV1.21B27,2013-08-28 20:54:00,
2013-08-28 13:59:00,83.8,58.2,29.84,West,278,0.0,2.0,42,0.00,,,0.00,WeatherCatV1.21B27,2013-08-28 20:59:00,
2013-08-28 14:04:00,84.3,58.7,29.84,SE,128,1.0,1.0,42,0.00,,,0.00,WeatherCatV1.21B27,2013-08-28 21:04:00,
2013-08-28 14:09:00,84.6,58.3,29.84,SSE,156,2.0,3.0,41,0.00,,,0.00,WeatherCatV1.21B27,2013-08-28 21:09:00,
2013-08-28 14:14:00,84.7,58.4,29.84,NE,34,1.0,2.0,41,0.00,,,0.00,WeatherCatV1.21B27,2013-08-28 21:14:00,
2013-08-28 14:19:00,84.8,58.5,29.84,ESE,115,0.0,1.0,41,0.00,,,0.00,WeatherCatV1.21B27,2013-08-28 21:19:00,
2013-08-28 14:24:00,84.7,57.7,29.84,SE,140,0.0,0.0,40,0.00,,,0.00,WeatherCatV1.21B27,2013-08-28 21:24:00,
2013-08-28 14:29:00,84.2,57.9,29.84,ESE,105,1.0,1.0,41,0.00,,,0.00,WeatherCatV1.21B27,2013-08-28 21:29:00,
2013-08-28 14:34:00,84.3,57.3,29.84,SE,139,1.0,1.0,40,0.00,,,0.00,WeatherCatV1.21B27,2013-08-28 21:34:00,
2013-08-28 14:39:00,84.2,57.9,29.84,SE,135,1.0,3.0,41,0.00,,,0.00,WeatherCatV1.21B27,2013-08-28 21:39:00,
2013-08-28 14:44:00,83.8,56.9,29.84,East,87,0.0,3.0,40,0.00,,,0.00,WeatherCatV1.21B27,2013-08-28 21:44:00,
2013-08-28 14:49:00,83.3,57.1,29.84,SSE,150,2.0,2.0,41,0.00,,,0.00,WeatherCatV1.21B27,2013-08-28 21:49:00,
2013-08-28 14:54:00,82.8,56.7,29.84,SE,145,0.0,4.0,41,0.00,,,0.00,WeatherCatV1.21B27,2013-08-28 21:54:00,
2013-08-28 14:59:00,82.5,56.4,29.83,North,10,1.0,3.0,41,0.00,,,0.00,WeatherCatV1.21B27,2013-08-28 21:59:00,
2013-08-28 15:04:00,82.3,56.9,29.83,ESE,123,1.0,1.0,42,0.00,,,0.00,WeatherCatV1.21B27,2013-08-28 22:04:00,
2013-08-28 15:09:00,82.6,56.5,29.83,East,99,0.0,3.0,41,0.00,,,0.00,WeatherCatV1.21B27,2013-08-28 22:09:00,
2013-08-28 15:14:00,82.5,57.1,29.83,East,100,0.0,1.0,42,0.00,,,0.00,WeatherCatV1.21B27,2013-08-28 22:14:00,
2013-08-28 15:19:00,82.5,56.4,29.83,SE,144,1.0,2.0,41,0.00,,,0.00,WeatherCatV1.21B27,2013-08-28 22:19:00,
2013-08-28 15:24:00,82.5,56.4,29.83,ESE,110,1.0,1.0,41,0.00,,,0.00,WeatherCatV1.21B27,2013-08-28 22:24:00,
2013-08-28 15:29:00,82.3,56.2,29.83,ESE,113,1.0,1.0,41,0.00,,,0.00,WeatherCatV1.21B27,2013-08-28 22:29:00,
2013-08-28 15:34:00,82.3,56.9,29.83,South,175,1.0,2.0,42,0.00,,,0.00,WeatherCatV1.21B27,2013-08-28 22:34:00,
2013-08-28 15:39:00,82.2,56.1,29.83,SW,225,0.0,2.0,41,0.00,,,0.00,WeatherCatV1.21B27,2013-08-28 22:39:00,
2013-08-28 15:44:00,82.1,56.0,29.83,SSE,153,0.0,2.0,41,0.00,,,0.00,WeatherCatV1.21B27,2013-08-28 22:44:00,
2013-08-28 15:49:00,81.8,55.8,29.83,SE,146,0.0,1.0,41,0.00,,,0.00,WeatherCatV1.21B27,2013-08-28 22:49:00,
2013-08-28 15:54:00,81.6,56.2,29.83,ESE,111,1.0,1.0,42,0.00,,,0.00,WeatherCatV1.21B27,2013-08-28 22:54:00,
2013-08-28 15:59:00,81.4,56.1,29.83,SE,128,0.0,1.0,42,0.00,,,0.00,WeatherCatV1.21B27,2013-08-28 22:59:00,
2013-08-28 16:04:00,81.2,55.2,29.83,East,85,0.0,1.0,41,0.00,,,0.00,WeatherCatV1.21B27,2013-08-28 23:04:00,
2013-08-28 16:09:00,81.1,55.8,29.83,NE,52,0.0,3.0,42,0.00,,,0.00,WeatherCatV1.21B27,2013-08-28 23:09:00,
2013-08-28 16:14:00,80.8,55.5,29.83,NE,43,1.0,2.0,42,0.00,,,0.00,WeatherCatV1.21B27,2013-08-28 23:14:00,
2013-08-28 16:19:00,80.5,55.3,29.83,ENE,64,0.0,1.0,42,0.00,,,0.00,WeatherCatV1.21B27,2013-08-28 23:19:00,
2013-08-28 16:24:00,80.5,55.3,29.83,ESE,119,0.0,1.0,42,0.00,,,0.00,WeatherCatV1.21B27,2013-08-28 23:24:00,
2013-08-28 16:29:00,80.3,55.1,29.83,SSE,152,0.0,2.0,42,0.00,,,0.00,WeatherCatV1.21B27,2013-08-28 23:29:00,
2013-08-28 16:34:00,80.2,55.7,29.83,SE,134,1.0,1.0,43,0.00,,,0.00,WeatherCatV1.21B27,2013-08-28 23:34:00,
2013-08-28 16:39:00,80.0,55.5,29.83,SE,145,0.0,2.0,43,0.00,,,0.00,WeatherCatV1.21B27,2013-08-28 23:39:00,
2013-08-28 16:44:00,79.9,55.4,29.83,South,169,0.0,1.0,43,0.00,,,0.00,WeatherCatV1.21B27,2013-08-28 23:44:00,
2013-08-28 16:49:00,79.9,56.0,29.83,SE,131,1.0,2.0,44,0.00,,,0.00,WeatherCatV1.21B27,2013-08-28 23:49:00,
2013-08-28 16:54:00,79.7,55.8,29.83,ESE,111,0.0,0.0,44,0.00,,,0.00,WeatherCatV1.21B27,2013-08-28 23:54:00,
2013-08-28 16:59:00,79.5,55.7,29.83,SSE,151,1.0,2.0,44,0.00,,,0.00,WeatherCatV1.21B27,2013-08-28 23:59:00,
2013-08-28 17:04:00,79.2,55.4,29.83,East,92,0.0,0.0,44,0.00,,,0.00,WeatherCatV1.21B27,2013-08-29 00:04:00,
2013-08-28 17:09:00,79.0,55.8,29.83,North,9,0.0,1.0,45,0.00,,,0.00,WeatherCatV1.21B27,2013-08-29 00:09:00,
2013-08-28 17:14:00,78.8,55.6,29.83,SSE,168,0.0,1.0,45,0.00,,,0.00,WeatherCatV1.21B27,2013-08-29 00:14:00,
2013-08-28 17:19:00,78.6,55.5,29.83,South,169,0.0,1.0,45,0.00,,,0.00,WeatherCatV1.21B27,2013-08-29 00:19:00,
2013-08-28 17:24:00,78.4,55.9,29.83,ESE,102,0.0,0.0,46,0.00,,,0.00,WeatherCatV1.21B27,2013-08-29 00:24:00,
2013-08-28 17:29:00,78.2,55.7,29.84,East,81,0.0,1.0,46,0.00,,,0.00,WeatherCatV1.21B27,2013-08-29 00:29:00,
2013-08-28 17:34:00,77.7,55.8,29.84,ESE,123,1.0,2.0,47,0.00,,,0.00,WeatherCatV1.21B27,2013-08-29 00:34:00,
2013-08-28 17:39:00,77.3,56.1,29.84,ESE,120,1.0,1.0,48,0.00,,,0.00,WeatherCatV1.21B27,2013-08-29 00:39:00,
2013-08-28 17:44:00,76.9,55.7,29.84,ESE,111,0.0,2.0,48,0.00,,,0.00,WeatherCatV1.21B27,2013-08-29 00:44:00,
2013-08-28 17:49:00,76.5,55.9,29.84,SSE,148,1.0,1.0,49,0.00,,,0.00,WeatherCatV1.21B27,2013-08-29 00:49:00,
2013-08-28 17:54:00,76.2,56.2,29.84,SSE,157,0.0,0.0,50,0.00,,,0.00,WeatherCatV1.21B27,2013-08-29 00:54:00,
2013-08-28 17:59:00,75.9,56.5,29.84,SE,141,0.0,0.0,51,0.00,,,0.00,WeatherCatV1.21B27,2013-08-29 00:59:00,
2013-08-28 18:04:00,75.6,56.7,29.84,SE,143,0.0,1.0,52,0.00,,,0.00,WeatherCatV1.21B27,2013-08-29 01:04:00,
2013-08-28 18:09:00,75.3,57.0,29.84,SE,131,0.0,1.0,53,0.00,,,0.00,WeatherCatV1.21B27,2013-08-29 01:09:00,
2013-08-28 18:14:00,75.0,57.2,29.83,SE,133,0.0,0.0,54,0.00,,,0.00,WeatherCatV1.21B27,2013-08-29 01:14:00,
2013-08-28 18:19:00,74.8,57.0,29.83,SE,133,0.0,0.0,54,0.00,,,0.00,WeatherCatV1.21B27,2013-08-29 01:19:00,
2013-08-28 18:24:00,74.6,56.8,29.83,SE,133,0.0,0.0,54,0.00,,,0.00,WeatherCatV1.21B27,2013-08-29 01:24:00,
2013-08-28 18:29:00,74.5,57.2,29.83,SE,133,0.0,0.0,55,0.00,,,0.00,WeatherCatV1.21B27,2013-08-29 01:29:00,
2013-08-28 18:34:00,74.2,57.0,29.83,SE,133,0.0,0.0,55,0.00,,,0.00,WeatherCatV1.21B27,2013-08-29 01:34:00,
2013-08-28 18:39:00,73.9,58.7,29.83,NNW,329,0.0,2.0,59,0.00,,,0.00,WeatherCatV1.21B27,2013-08-29 01:39:00,
2013-08-28 18:44:00,73.6,58.8,29.83,NNW,329,1.0,1.0,60,0.00,,,0.00,WeatherCatV1.21B27,2013-08-29 01:44:00,
2013-08-28 18:49:00,73.2,58.9,29.83,NNW,331,0.0,3.0,61,0.00,,,0.00,WeatherCatV1.21B27,2013-08-29 01:49:00,
2013-08-28 18:54:00,72.8,59.0,29.83,NNW,332,0.0,0.0,62,0.00,,,0.00,WeatherCatV1.21B27,2013-08-29 01:54:00,
2013-08-28 18:59:00,72.5,59.2,29.84,NNW,332,1.0,2.0,63,0.00,,,0.00,WeatherCatV1.21B27,2013-08-29 01:59:00,
2013-08-28 19:04:00,72.1,59.2,29.84,NNW,333,4.0,4.0,64,0.00,,,0.00,WeatherCatV1.21B27,2013-08-29 02:04:00,
2013-08-28 19:09:00,71.6,59.2,29.84,NNW,337,2.0,4.0,65,0.00,,,0.00,WeatherCatV1.21B27,2013-08-29 02:09:00,
2013-08-28 19:14:00,71.1,60.0,29.84,NNW,338,3.0,5.0,68,0.00,,,0.00,WeatherCatV1.21B27,2013-08-29 02:14:00,
2013-08-28 19:19:00,70.5,59.8,29.84,NNW,343,3.0,4.0,69,0.00,,,0.00,WeatherCatV1.21B27,2013-08-29 02:19:00,
2013-08-28 19:24:00,70.1,59.8,29.84,NNW,335,3.0,5.0,70,0.00,,,0.00,WeatherCatV1.21B27,2013-08-29 02:24:00,
2013-08-28 19:29:00,69.7,59.9,29.84,NNW,332,4.0,7.0,71,0.00,,,0.00,WeatherCatV1.21B27,2013-08-29 02:29:00,
2013-08-28 19:34:00,69.3,59.9,29.84,NNW,340,3.0,5.0,72,0.00,,,0.00,WeatherCatV1.21B27,2013-08-29 02:34:00,
2013-08-28 19:39:00,68.9,59.9,29.84,North,356,4.0,4.0,73,0.00,,,0.00,WeatherCatV1.21B27,2013-08-29 02:39:00,
2013-08-28 19:44:00,68.6,60.0,29.84,NNW,343,3.0,4.0,74,0.00,,,0.00,WeatherCatV1.21B27,2013-08-29 02:44:00,
2013-08-28 19:49:00,68.3,60.1,29.84,North,8,3.0,4.0,75,0.00,,,0.00,WeatherCatV1.21B27,2013-08-29 02:49:00,
2013-08-28 19:54:00,68.0,60.1,29.84,NNW,335,5.0,5.0,76,0.00,,,0.00,WeatherCatV1.21B27,2013-08-29 02:54:00,
2013-08-28 19:59:00,67.7,60.2,29.84,NW,325,5.0,5.0,77,0.00,,,0.00,WeatherCatV1.21B27,2013-08-29 02:59:00,
2013-08-28 20:04:00,67.3,59.8,29.84,NNW,335,4.0,5.0,77,0.00,,,0.00,WeatherCatV1.21B27,2013-08-29 03:04:00,
2013-08-28 20:09:00,67.0,60.3,29.84,NNW,340,3.0,5.0,79,0.00,,,0.00,WeatherCatV1.21B27,2013-08-29 03:09:00,
2013-08-28 20:14:00,66.8,60.1,29.84,NNW,328,3.0,5.0,79,0.00,,,0.00,WeatherCatV1.21B27,2013-08-29 03:14:00,
2013-08-28 20:19:00,66.8,60.1,29.84,NW,318,4.0,5.0,79,0.00,,,0.00,WeatherCatV1.21B27,2013-08-29 03:19:00,
2013-08-28 20:24:00,66.7,60.0,29.84,North,350,5.0,6.0,79,0.00,,,0.00,WeatherCatV1.21B27,2013-08-29 03:24:00,
2013-08-28 20:29:00,66.3,59.9,29.85,NNW,333,4.0,5.0,80,0.00,,,0.00,WeatherCatV1.21B27,2013-08-29 03:29:00,
2013-08-28 20:34:00,66.0,60.0,29.85,NNW,331,2.0,4.0,81,0.00,,,0.00,WeatherCatV1.21B27,2013-08-29 03:34:00,
2013-08-28 20:39:00,65.8,59.8,29.85,NNW,335,4.0,4.0,81,0.00,,,0.00,WeatherCatV1.21B27,2013-08-29 03:39:00,
2013-08-28 20:44:00,65.6,60.0,29.85,NNW,331,3.0,3.0,82,0.00,,,0.00,WeatherCatV1.21B27,2013-08-29 03:44:00,
2013-08-28 20:49:00,65.6,59.6,29.85,NNW,330,4.0,4.0,81,0.00,,,0.00,WeatherCatV1.21B27,2013-08-29 03:49:00,
2013-08-28 20:54:00,65.8,59.8,29.85,NNW,331,2.0,4.0,81,0.00,,,0.00,WeatherCatV1.21B27,2013-08-29 03:54:00,
2013-08-28 20:59:00,66.1,59.7,29.85,NNW,329,0.0,2.0,80,0.00,,,0.00,WeatherCatV1.21B27,2013-08-29 03:59:00,
2013-08-28 21:01:00,66.1,59.7,29.85,NNW,329,0.0,0.0,80,0.00,,,0.00,WeatherCatV1.21B27,2013-08-29 04:01:00,
2013-08-28 21:02:00,66.1,59.4,29.85,NNW,329,0.0,0.0,79,0.00,,,0.00,WeatherCatV1.21B27,2013-08-29 04:02:00,
2013-08-28 21:04:00,66.2,59.5,29.85,NNW,329,0.0,0.0,79,0.00,,,0.00,WeatherCatV1.21B27,2013-08-29 04:04:00,
2013-08-28 21:09:00,66.1,59.0,29.85,NNW,329,0.0,0.0,78,0.00,,,0.00,WeatherCatV1.21B27,2013-08-29 04:09:00,
2013-08-28 21:14:00,66.1,59.0,29.86,NNW,329,0.0,1.0,78,0.00,,,0.00,WeatherCatV1.21B27,2013-08-29 04:14:00,
2013-08-28 21:19:00,66.0,58.9,29.86,NNW,329,0.0,0.0,78,0.00,,,0.00,WeatherCatV1.21B27,2013-08-29 04:19:00,
2013-08-28 21:24:00,66.0,58.9,29.86,NNW,329,0.0,0.0,78,0.00,,,0.00,WeatherCatV1.21B27,2013-08-29 04:24:00,
2013-08-28 21:29:00,65.9,58.8,29.86,NNW,329,0.0,0.0,78,0.00,,,0.00,WeatherCatV1.21B27,2013-08-29 04:29:00,
2013-08-28 21:34:00,65.9,58.5,29.86,NNW,329,0.0,0.0,77,0.00,,,0.00,WeatherCatV1.21B27,2013-08-29 04:34:00,
2013-08-28 21:39:00,65.9,58.5,29.86,NNW,329,0.0,0.0,77,0.00,,,0.00,WeatherCatV1.21B27,2013-08-29 04:39:00,
2013-08-28 21:44:00,65.9,58.5,29.86,NNW,329,0.0,0.0,77,0.00,,,0.00,WeatherCatV1.21B27,2013-08-29 04:44:00,
2013-08-28 21:49:00,65.8,58.4,29.86,NNW,329,0.0,0.0,77,0.00,,,0.00,WeatherCatV1.21B27,2013-08-29 04:49:00,
2013-08-28 21:54:00,65.8,58.4,29.86,NNW,329,0.0,0.0,77,0.00,,,0.00,WeatherCatV1.21B27,2013-08-29 04:54:00,
2013-08-28 21:59:00,65.7,58.3,29.87,NNW,329,0.0,0.0,77,0.00,,,0.00,WeatherCatV1.21B27,2013-08-29 04:59:00,
2013-08-28 22:04:00,65.7,58.3,29.87,NNW,329,0.0,0.0,77,0.00,,,0.00,WeatherCatV1.21B27,2013-08-29 05:04:00,
2013-08-28 22:09:00,65.7,58.3,29.87,NNW,329,0.0,0.0,77,0.00,,,0.00,WeatherCatV1.21B27,2013-08-29 05:09:00,
2013-08-28 22:14:00,65.7,58.3,29.87,NNW,329,0.0,0.0,77,0.00,,,0.00,WeatherCatV1.21B27,2013-08-29 05:14:00,
2013-08-28 22:19:00,65.7,58.3,29.87,NNW,329,0.0,0.0,77,0.00,,,0.00,WeatherCatV1.21B27,2013-08-29 05:19:00,
2013-08-28 22:24:00,65.7,58.3,29.87,NNW,329,0.0,0.0,77,0.00,,,0.00,WeatherCatV1.21B27,2013-08-29 05:24:00,
2013-08-28 22:29:00,65.7,57.9,29.87,NNW,329,0.0,0.0,76,0.00,,,0.00,WeatherCatV1.21B27,2013-08-29 05:29:00,
2013-08-28 22:34:00,65.8,58.0,29.87,NNW,329,0.0,0.0,76,0.00,,,0.00,WeatherCatV1.21B27,2013-08-29 05:34:00,
2013-08-28 22:39:00,65.8,57.7,29.87,NNW,329,0.0,0.0,75,0.00,,,0.00,WeatherCatV1.21B27,2013-08-29 05:39:00,
2013-08-28 22:44:00,65.8,57.7,29.87,NNW,329,0.0,0.0,75,0.00,,,0.00,WeatherCatV1.21B27,2013-08-29 05:44:00,
2013-08-28 22:49:00,65.8,57.7,29.87,NNW,329,0.0,0.0,75,0.00,,,0.00,WeatherCatV1.21B27,2013-08-29 05:49:00,
2013-08-28 22:54:00,65.8,57.7,29.87,NNW,329,0.0,0.0,75,0.00,,,0.00,WeatherCatV1.21B27,2013-08-29 05:54:00,
2013-08-28 22:59:00,65.7,57.5,29.87,NNW,329,0.0,0.0,75,0.00,,,0.00,WeatherCatV1.21B27,2013-08-29 05:59:00,
2013-08-28 23:04:00,65.6,57.5,29.87,NNW,329,0.0,0.0,75,0.00,,,0.00,WeatherCatV1.21B27,2013-08-29 06:04:00,
2013-08-28 23:09:00,65.5,57.4,29.87,NNW,329,0.0,0.0,75,0.00,,,0.00,WeatherCatV1.21B27,2013-08-29 06:09:00,
2013-08-28 23:14:00,65.4,57.3,29.87,NNW,329,0.0,0.0,75,0.00,,,0.00,WeatherCatV1.21B27,2013-08-29 06:14:00,
2013-08-28 23:19:00,65.3,57.2,29.87,NNW,329,0.0,0.0,75,0.00,,,0.00,WeatherCatV1.21B27,2013-08-29 06:19:00,
2013-08-28 23:24:00,65.1,57.3,29.87,NNW,329,0.0,0.0,76,0.00,,,0.00,WeatherCatV1.21B27,2013-08-29 06:24:00,
2013-08-28 23:29:00,65.0,57.2,29.87,NNW,329,0.0,0.0,76,0.00,,,0.00,WeatherCatV1.21B27,2013-08-29 06:29:00,
2013-08-28 23:34:00,64.9,57.2,29.87,NNW,329,0.0,0.0,76,0.00,,,0.00,WeatherCatV1.21B27,2013-08-29 06:34:00,
2013-08-28 23:39:00,64.9,57.5,29.87,NNW,329,0.0,0.0,77,0.00,,,0.00,WeatherCatV1.21B27,2013-08-29 06:39:00,
2013-08-28 23:44:00,64.8,57.4,29.87,NNW,329,0.0,0.0,77,0.00,,,0.00,WeatherCatV1.21B27,2013-08-29 06:44:00,
2013-08-28 23:49:00,64.7,57.3,29.87,NNW,329,0.0,0.0,77,0.00,,,0.00,WeatherCatV1.21B27,2013-08-29 06:49:00,
2013-08-28 23:54:00,64.6,57.2,29.87,NNW,329,0.0,0.0,77,0.00,,,0.00,WeatherCatV1.21B27,2013-08-29 06:54:00,
2013-08-28 23:59:00,64.5,57.5,29.88,NNW,329,0.0,0.0,78,0.00,,,0.00,WeatherCatV1.21B27,2013-08-29 06:59:00,